Home > Weather > Pond Inlet > Past weeks

Flag for Canada Weather for the Past 2 Weeks in Pond Inlet, Nunavut, Canada

Now
-29 °F

Clear.


Feels Like: -44 °F
Forecast: -32 / -28 °F
Wind: 5 mph from Southwest

Location: Pond Inlet

Current Time: Feb 14, 2016 at 4:07:29 AM

Latest Report: Feb 14, 2016 at 3:00 AM


Visibility: 9 mi

Pressure: 30.11 "Hg

Humidity: 67%

Dew point: -36 °F

Location of Pond InletLocation

Historic Weather in Pond Inlet — Graph

°F

Pond Inlet Temperature Yesterday

Maximum temperature yesterday: -27 °F (at 2:00 AM)
Minimum temperature yesterday: -33 °F (at 4:00 AM)
Average temperature yesterday: -31 °F

High & Low Weather Summary for the Past Weeks

 TemperatureHumidityPressure
High-15 °F (Feb 6, 6:00 AM)83% (Feb 6, 4:00 AM)30.30 "Hg (Feb 6, 4:00 AM)
Low-36 °F (Feb 10, 12:00 AM)60% (Feb 8, 3:00 AM)29.75 "Hg (Feb 1, 12:00 AM)
Average-27 °F70%30.00 "Hg
* Reported Jan 30 2:00 AM — Feb 14 2:00 AM, Pond Inlet, Weather by CustomWeather, © 2016

Note: Actual official high and low records may vary slightly from our data, if they occured in-between our weather recording intervals... More about our weather records

Advertising

Pond Inlet Weather History for the Previous 24 Hours

 ConditionsComfort  
Time TempWeatherWind HumidityBarometerVisibility
2:00 AM
Sun, Feb 14
-31 °FClear.6 mph60%30.11 "Hg9 mi
1:00 AM-29 °FClear.7 mph67%30.11 "Hg9 mi
12:00 AM-29 °FClear.7 mph74%30.11 "Hg9 mi
11:00 PM
Sat, Feb 13
-29 °FPassing clouds.9 mph74%30.10 "Hg9 mi
10:00 PM-31 °FClear.8 mph74%30.11 "Hg9 mi
9:00 PM-31 °FClear.8 mph67%30.11 "Hg9 mi
8:00 PM-31 °FClear.6 mph67%30.11 "Hg9 mi
7:00 PM-33 °FClear.8 mph66%30.11 "Hg9 mi
6:00 PM-33 °FClear.9 mph66%30.11 "Hg9 mi
5:00 PM-33 °FClear.7 mph66%30.10 "Hg15 mi
4:00 PM-31 °FClear.6 mph67%30.09 "Hg30 mi
3:00 PM-29 °FClear.8 mph67%30.09 "Hg30 mi
2:00 PM-29 °FClear.8 mph67%30.08 "Hg30 mi
1:00 PM-29 °FSunny.7 mph74%30.08 "Hg9 mi
12:00 PM-31 °FSunny.8 mph67%30.08 "Hg9 mi
11:00 AM-31 °FSunny.5 mph74%30.07 "Hg9 mi
10:00 AM-29 °FSunny.5 mph67%30.06 "Hg9 mi
9:00 AM-33 °FSunny.6 mph74%30.07 "Hg9 mi
8:00 AM-31 °FSunny.6 mph67%30.08 "Hg9 mi
7:00 AM-31 °FClear.7 mph67%30.07 "Hg9 mi
6:00 AM-31 °FClear.8 mph74%30.08 "Hg9 mi
5:00 AM-29 °FClear.8 mph67%30.08 "Hg9 mi
4:00 AM-33 °FClear.8 mph66%30.08 "Hg9 mi
Weather by CustomWeather, © 2016

See weather overviewHow to use our weather pages